Starlink 30223

operational
NORAD ID: 57603 Int'l Des: 2023-119 Owner: SPXS Country: US Constellation: starlink
LEOCIRCULAR

Über Starlink 30223

Beschreibung wird geladen...

Live-Position

3D-Globus wird geladen...

Nächste Überflüge

Höhenverlauf

Altitude vs Time

uPlot chart will show altitude changes over time

Zweizeiliger Elementsatz

1 57603U 23119B 25258.18140006 -.00001213 00000-0 -74746-4 0 9990
2 57603 43.0024 315.3729 0001131 268.9675 91.1038 15.02532143116674
Epoch: 15. Sept. 2025 • Age: 14 hours

Aktueller Status

Höhe 571.1 km
Geschwindigkeit 7.58 km/s
Subsatellitenpunkt -41.64°S, 65.04°W
Startdatum 11. Aug. 2023
Alter 2 years
Typ internet

Technische Details

Klassifizierung Payload
Masse 730.00 kg
Trockenmasse 700.00 kg
Gesamtmasse 730.00 kg
Länge 0.30 m
Durchmesser 4.10 m
Spannweite 29.00 m
Form Box + pan
Hersteller SPXS
Bus-Typ Starlink V2M
Phasenstatus In Orbit
Besitzer/Staat SPXS/US

Große Konstellationen

Loading constellations...